SCP
0 0 0 0 0 0 0 0 0 0 0 0 0 0 0 0 0 0 0 0 0 0
0 0 0 0 0 0 0 0 0 0 0 0 0 0 0 0 0 0 0 0 0 0
0 0 0 0 0 0 0 0 0 0 0 0 0 0 0 0 0 0 0 0 0 0
0 0 0 0 0 0 0 0 0 0 0 0 0 0 0 0 0 0 0 0 0 0
0 0 0 0 0 0 0 0 0 0 0 0 0 0 0 0 0 0 0 0 0 0
0 0 0 0 0 0 0 0 0 0 0 0 0 0 0 0 0 0 0 0 0 0
0 0 0 0 0 0 0 0 0 0 0 0 0 0 0 0 0 0 0 0 0 0
0 0 0 0 0 0 0 0 0 0 0 0 0 0 0 0 0 0 0 0 0 0
0 0 0 0 0 0 0 0 0 0 0 0 0 0 0 0 0 0 0 0 0 0
0 0 0 0 0 0 0 0 0 0 0 0 0 0 0 0 0 0 0 0 0 0
0 0 0 0 0 0 0 0 0 0 0 0 0 0 0 0 0 0 0 0 0 0
0 0 0 0 0 0 0 0 0 0 0 0 0 0 0 0 0 0 0 0 0 0
0 0 0 0 0 0 0 0 0 0 0 0 0 0 0 0 0 0 0 0 0 0
0 0 0 0 0 0 0 0 0 0 0 0 0 0 0 0 0 0 0 0 0 0
Wind_Speed_500mb
61 58 52 47 40 34 35 34 31 29 26 25 22 24 32 38 45 53 59 65 70 65
64 62 57 49 44 39 37 34 32 29 27 24 22 27 34 40 48 56 62 69 73 63
65 62 58 54 47 41 38 36 32 30 27 24 24 29 36 42 50 59 65 71 69 64
66 64 61 56 49 43 40 37 33 31 27 24 25 31 36 44 52 60 67 69 65 63
65 65 63 58 51 45 41 38 34 31 27 25 25 30 36 44 52 60 67 67 63 61
65 66 63 58 52 47 43 39 36 32 27 26 26 29 35 44 53 59 65 64 61 57
65 64 61 55 52 49 45 40 36 32 28 27 26 28 34 44 52 57 60 59 57 48
62 61 59 58 56 51 46 39 36 34 30 27 25 27 34 42 51 56 60 59 55 43
63 63 62 60 57 53 46 42 39 36 32 27 24 26 33 42 49 54 59 63 56 42
65 66 64 61 59 55 47 43 39 38 33 27 25 26 30 39 46 51 55 59 58 45
69 67 64 63 61 53 48 44 41 40 34 29 28 25 28 35 43 47 52 56 57 49
70 68 66 68 60 54 48 45 42 39 37 32 28 25 27 31 38 44 48 52 50 43
71 68 69 63 58 53 48 43 42 42 40 36 31 27 25 28 35 39 44 46 48 42
70 67 63 59 57 52 49 45 45 43 43 39 34 30 26 25 31 36 42 43 43 39
Wind_Direction_500mb
231 235 239 244 256 272 278 276 280 283 285 285 288 297 307 316 320 320 321 322 321 323
232 235 239 245 253 266 273 273 276 279 280 280 283 295 307 317 321 322 324 325 322 323
235 239 240 244 252 262 268 268 271 272 274 273 282 297 309 317 323 325 326 323 327 328
238 238 240 244 250 259 262 263 266 268 268 267 282 299 311 320 326 326 325 327 332 327
239 239 241 243 248 255 257 258 261 262 261 266 282 299 313 321 326 327 326 334 330 328
239 238 239 242 246 252 250 252 254 256 256 264 281 300 314 322 327 328 331 334 331 332
238 238 240 242 244 245 244 247 250 252 250 261 281 300 314 322 327 331 333 333 334 332
239 238 237 238 239 237 240 243 245 247 247 259 280 301 314 323 328 332 333 339 337 329
236 234 234 234 233 231 235 238 241 243 245 257 277 298 313 323 330 333 336 337 339 331
234 232 231 229 226 228 232 236 239 240 242 252 273 292 310 321 329 333 337 337 337 337
231 229 227 224 223 225 229 234 236 237 241 250 267 285 303 318 327 333 337 340 339 336
228 225 222 220 221 224 227 230 234 236 242 248 261 278 296 314 324 331 336 341 340 340
227 223 220 219 220 223 226 230 232 237 242 249 255 268 284 304 318 327 333 343 344 342
222 220 217 218 219 221 225 229 233 237 241 247 252 261 273 293 312 324 332 343 346 345
Wind_Speed_850mb
61 58 52 47 40 34 35 34 31 29 26 25 22 24 32 38 45 53 59 65 70 65
64 62 57 49 44 39 37 34 32 29 27 24 22 27 34 40 48 56 62 69 73 63
65 62 58 54 47 41 38 36 32 30 27 24 24 29 36 42 50 59 65 71 69 64
66 64 61 56 49 43 40 37 33 31 27 24 25 31 36 44 52 60 67 69 65 63
65 65 63 58 51 45 41 38 34 31 27 25 25 30 36 44 52 60 67 67 63 61
65 66 63 58 52 47 43 39 36 32 27 26 26 29 35 44 53 59 65 64 61 57
65 64 61 55 52 49 45 40 36 32 28 27 26 28 34 44 52 57 60 59 57 48
62 61 59 58 56 51 46 39 36 34 30 27 25 27 34 42 51 56 60 59 55 43
63 63 62 60 57 53 46 42 39 36 32 27 24 26 33 42 49 54 59 63 56 42
65 66 64 61 59 55 47 43 39 38 33 27 25 26 30 39 46 51 55 59 58 45
69 67 64 63 61 53 48 44 41 40 34 29 28 25 28 35 43 47 52 56 57 49
70 68 66 68 60 54 48 45 42 39 37 32 28 25 27 31 38 44 48 52 50 43
71 68 69 63 58 53 48 43 42 42 40 36 31 27 25 28 35 39 44 46 48 42
70 67 63 59 57 52 49 45 45 43 43 39 34 30 26 25 31 36 42 43 43 39
Wind_Direction_850mb
231 235 239 244 256 272 278 276 280 283 285 285 288 297 307 316 320 320 321 322 321 323
232 235 239 245 253 266 273 273 276 279 280 280 283 295 307 317 321 322 324 325 322 323
235 239 240 244 252 262 268 268 271 272 274 273 282 297 309 317 323 325 326 323 327 328
238 238 240 244 250 259 262 263 266 268 268 267 282 299 311 320 326 326 325 327 332 327
239 239 241 243 248 255 257 258 261 262 261 266 282 299 313 321 326 327 326 334 330 328
239 238 239 242 246 252 250 252 254 256 256 264 281 300 314 322 327 328 331 334 331 332
238 238 240 242 244 245 244 247 250 252 250 261 281 300 314 322 327 331 333 333 334 332
239 238 237 238 239 237 240 243 245 247 247 259 280 301 314 323 328 332 333 339 337 329
236 234 234 234 233 231 235 238 241 243 245 257 277 298 313 323 330 333 336 337 339 331
234 232 231 229 226 228 232 236 239 240 242 252 273 292 310 321 329 333 337 337 337 337
231 229 227 224 223 225 229 234 236 237 241 250 267 285 303 318 327 333 337 340 339 336
228 225 222 220 221 224 227 230 234 236 242 248 261 278 296 314 324 331 336 341 340 340
227 223 220 219 220 223 226 230 232 237 242 249 255 268 284 304 318 327 333 343 344 342
222 220 217 218 219 221 225 229 233 237 241 247 252 261 273 293 312 324 332 343 346 345